Wind_Speed
14 13 13 12 11 10 8 6 5 4 2 2 2 3 3 3 4 5 6 6 7 7 7 7 7 8 7 7 7 7 7 7 7 7 7 7 7 7 7 7 6 6 6 5
16 15 14 14 13 11 10 8 6 5 4 3 2 1 1 1 2 3 4 5 6 6 6 6 6 6 7 7 7 7 7 7 7 6 6 6 6 6 6 6 6 6 6 5
17 16 17 16 14 13 11 10 8 7 5 4 3 2 1 1 1 1 2 3 4 4 5 5 5 5 5 5 5 6 6 6 6 6 6 6 6 5 6 6 6 5 5 5
20 20 18 17 16 14 13 12 11 9 7 6 5 4 4 3 2 1 1 1 2 2 3 4 4 4 4 4 4 4 5 6 6 6 5 5 5 5 5 4 4 4 5 5
23 22 20 19 17 16 15 14 13 12 10 9 8 7 6 5 4 2 2 2 2 2 2 2 3 3 3 3 3 3 4 4 5 5 5 4 4 5 4 4 5 5 4 4
25 24 22 21 20 19 18 16 15 13 11 11 11 9 8 7 5 4 3 3 3 3 3 2 2 3 3 2 2 2 2 3 4 4 4 4 4 5 5 4 5 6 5 5
28 26 24 23 22 21 20 18 15 14 14 13 12 11 10 9 7 6 5 4 3 4 4 3 4 3 3 3 2 2 1 2 3 3 4 5 5 5 5 5 6 6 7 6
28 28 27 25 24 23 22 20 19 16 14 13 14 12 11 10 9 8 7 6 6 5 4 4 5 4 4 4 3 3 3 3 3 3 4 5 5 6 5 5 6 7 7 7
29 28 28 27 26 25 23 22 20 18 16 15 15 13 12 11 10 9 8 7 7 6 6 7 6 5 6 5 5 5 4 5 4 4 5 5 5 6 6 6 6 7 7 7
29 29 29 28 27 27 26 24 22 21 19 17 16 15 14 12 11 10 9 9 8 8 8 8 7 7 7 7 7 6 6 6 6 6 6 6 6 6 7 7 7 7 8 9
30 29 29 29 29 29 28 27 25 23 22 19 17 16 15 14 12 11 10 10 10 9 9 9 9 9 9 9 8 8 8 8 8 8 8 8 8 8 8 7 8 8 9 10
30 30 30 30 30 30 29 28 26 25 24 22 19 17 17 15 14 13 12 12 12 11 11 11 11 11 11 11 10 10 10 11 10 10 10 10 10 10 9 9 9 9 10 11
32 32 31 30 31 31 31 29 29 27 25 24 21 19 19 17 15 14 14 13 13 13 13 13 13 13 13 12 12 12 12 12 13 12 11 11 12 11 11 11 11 11 11 12
31 32 31 30 30 31 31 31 30 29 27 25 24 21 22 20 17 16 15 15 15 14 14 14 14 14 14 14 14 14 14 14 14 14 13 13 13 13 13 13 13 13 15 15
31 32 31 31 30 30 31 32 31 31 30 28 26 24 23 22 19 18 17 17 17 16 15 15 15 14 15 15 15 15 15 15 15 15 15 14 14 14 14 14 15 15 16 16
31 31 31 31 31 31 32 32 31 31 31 29 28 27 24 22 21 20 19 18 18 18 17 16 16 16 16 16 16 15 15 16 16 16 16 16 15 16 16 17 17 18 18 18
30 31 31 30 31 31 33 32 32 31 31 30 28 27 25 23 22 21 20 20 19 19 19 18 17 18 18 18 17 16 16 17 17 17 18 18 18 18 19 19 19 20 20 19
30 30 30 29 30 32 33 32 32 32 31 30 29 28 26 24 23 22 21 20 20 20 20 20 19 19 19 19 18 18 18 19 19 19 19 19 19 20 20 20 21 21 21 21
29 30 30 30 30 30 31 32 32 31 31 30 29 28 26 24 23 23 22 21 21 20 20 20 21 21 21 21 21 20 20 21 21 21 20 20 21 21 22 23 22 22 21 21
28 29 29 29 27 27 28 29 29 29 30 29 29 27 26 26 26 24 23 23 22 21 21 22 22 22 22 22 22 22 23 22 22 22 22 22 22 22 23 24 23 23 22 22
28 28 29 28 27 26 27 27 27 28 29 28 28 28 28 27 27 25 24 24 24 22 22 23 23 24 24 24 24 24 23 22 22 23 23 23 24 25 25 24 23 24 24 24
28 28 28 27 27 27 27 27 28 27 27 26 26 27 27 28 28 26 25 24 24 24 24 24 24 25 25 25 25 25 25 24 24 25 25 25 24 25 25 24 25 25 25 26
28 28 28 28 28 28 28 28 27 26 26 26 26 27 27 28 28 27 27 26 26 26 26 26 26 27 27 27 27 27 26 26 26 27 27 26 26 26 26 26 26 26 27 27
28 28 28 28 28 28 28 28 27 26 26 26 27 27 27 27 27 27 28 28 27 27 27 27 28 28 28 29 29 29 28 28 29 29 29 28 28 28 28 27 27 28 28 28
28 28 27 28 28 28 28 28 28 28 27 28 28 28 27 27 27 27 28 29 29 29 29 29 30 30 30 30 31 31 30 30 30 30 30 30 30 30 29 29 29 29 29 28
27 27 27 27 27 28 28 28 28 29 28 28 28 28 27 27 27 28 29 30 30 30 30 31 31 32 32 32 32 31 31 32 32 31 31 31 32 32 31 31 30 30 30 29
Wind_Direction
215 213 211 214 212 209 208 202 197 193 177 161 125 97 82 77 66 59 55 55 57 59 61 64 65 65 69 69 67 66 61 63 63 65 64 64 65 65 66 66 67 71 68 68
217 214 215 217 213 213 212 213 213 216 209 195 188 145 102 60 41 49 50 51 51 53 59 63 65 65 64 69 70 67 57 51 51 57 57 52 58 59 57 53 59 61 62 58
221 217 216 216 214 214 213 216 219 222 219 216 221 232 252 307 344 40 50 46 43 45 52 55 56 61 62 65 67 64 52 45 41 44 50 52 52 51 51 56 59 55 49 52
220 219 218 217 215 216 219 219 219 224 229 237 240 249 260 272 283 313 10 21 19 26 40 52 52 50 51 55 58 54 48 46 43 42 47 51 46 40 46 51 50 40 33 32
221 221 220 220 219 220 222 223 225 230 234 239 244 246 255 258 261 265 278 317 337 344 6 33 36 32 34 37 46 43 45 49 40 38 38 35 33 28 28 25 22 17 13 10
223 222 221 221 222 221 221 225 228 232 236 241 241 243 249 252 257 260 267 287 310 316 317 327 343 356 6 8 15 24 31 22 25 27 21 19 17 15 12 3 357 357 354 353
221 222 220 220 221 221 222 224 229 235 238 242 242 243 242 244 251 255 262 271 289 300 304 318 318 317 327 327 327 330 341 336 349 359 1 2 359 355 358 356 352 350 347 347
223 224 222 221 222 224 224 225 224 229 237 245 245 244 243 243 245 250 255 261 269 281 295 303 307 302 296 298 301 303 298 304 320 328 333 338 342 341 340 340 346 348 344 338
223 225 224 222 223 225 227 227 228 231 235 238 248 246 242 239 241 246 251 259 265 270 286 290 292 291 292 289 288 291 285 285 292 300 312 320 325 329 330 332 337 340 342 337
223 224 224 224 224 226 227 229 228 228 231 238 247 248 243 238 240 246 250 258 262 269 280 283 281 283 290 288 283 283 282 280 281 288 296 302 312 316 314 319 326 328 330 330
223 225 226 225 225 228 228 228 229 231 233 234 242 248 244 241 240 243 248 253 259 264 269 275 276 278 283 286 280 281 280 279 280 283 289 295 300 304 308 311 312 316 320 321
224 225 228 229 229 228 229 230 231 232 236 234 237 245 247 245 242 244 247 250 255 261 267 272 276 276 279 282 282 279 278 278 277 281 287 291 294 296 299 302 304 307 312 314
224 224 227 228 230 229 230 230 230 231 236 237 237 243 247 247 245 248 250 252 256 260 265 270 273 275 279 279 282 280 279 277 276 280 285 289 288 292 297 300 300 302 306 310
225 226 226 229 232 232 231 231 230 230 232 238 239 242 247 247 248 250 253 254 255 258 263 267 269 272 276 277 279 279 276 277 278 282 284 285 289 292 293 299 305 303 305 310
225 227 228 228 230 232 234 232 231 231 232 237 242 243 244 246 249 252 253 255 257 259 261 265 266 269 273 274 277 278 276 277 278 282 281 280 286 290 292 297 301 303 305 307
226 227 229 231 231 231 232 231 232 233 234 237 240 242 244 247 249 251 252 254 256 259 261 264 266 267 270 274 275 274 273 276 276 278 279 278 282 287 291 296 300 302 302 303
228 227 229 232 232 233 232 230 230 233 235 237 239 241 243 245 247 249 251 253 257 259 260 261 263 264 269 272 271 271 274 276 276 276 277 278 279 284 287 291 295 299 300 300
228 229 230 231 233 235 234 232 232 234 235 237 238 240 242 244 245 246 248 252 257 258 259 259 259 262 267 267 269 271 274 276 276 277 279 283 283 285 288 292 296 298 299 299
228 227 228 229 234 237 236 232 232 234 235 237 238 239 242 243 245 245 247 250 255 258 259 258 258 260 262 265 268 270 272 273 275 276 279 281 286 288 292 290 291 295 296 297
225 227 227 227 229 233 235 232 232 235 238 236 239 240 240 242 243 245 248 250 254 255 256 257 259 261 262 264 266 269 270 272 274 277 280 281 285 287 289 290 290 292 294 295
223 224 226 227 229 232 233 232 231 235 238 239 241 242 240 240 242 245 250 253 252 253 254 257 260 263 264 265 266 268 268 270 273 277 279 281 284 285 285 287 288 289 292 292
222 225 228 229 230 234 235 234 235 237 240 241 243 243 242 242 243 245 249 252 251 251 253 257 261 264 265 266 266 267 268 270 272 275 278 281 283 286 287 288 288 291 292 293
224 225 226 228 231 235 236 237 238 240 241 242 243 244 245 246 247 248 249 250 251 252 255 258 261 262 263 264 265 266 268 270 272 274 276 279 281 283 286 288 288 290 291 291
225 227 229 230 232 235 238 240 241 241 241 243 244 244 246 248 249 250 250 250 251 252 255 259 261 261 263 264 266 266 268 271 272 273 275 276 278 280 284 286 287 289 290 290
229 231 232 230 232 235 238 241 242 241 243 245 246 246 247 249 249 250 251 250 250 252 255 259 261 262 264 266 267 267 269 270 272 273 274 275 277 279 282 284 284 286 288 289
229 231 231 230 231 235 237 240 241 241 242 244 245 247 249 250 250 251 253 253 253 255 257 259 261 262 264 266 266 266 269 271 271 272 273 274 276 277 279 281 282 284 287 288
Height
5904 5908 5909 5911 5913 5915 5916 5917 5918 5918 5918 5918 5919 5919 5918 5917 5917 5916 5915 5915 5914 5913 5912 5911 5910 5908 5907 5906 5905 5904 5904 5903 5902 5901 5901 5900 5899 5898 5898 5897 5895 5894 5894 5893
5903 5905 5908 5909 5911 5913 5915 5916 5917 5918 5918 5918 5919 5919 5919 5918 5917 5917 5916 5916 5915 5914 5913 5912 5911 5910 5909 5908 5907 5906 5905 5904 5903 5902 5902 5901 5900 5899 5898 5898 5897 5896 5895 5894
5900 5903 5904 5906 5909 5911 5913 5915 5916 5917 5917 5918 5919 5919 5919 5918 5918 5917 5917 5916 5915 5914 5914 5913 5912 5911 5910 5909 5908 5907 5906 5905 5904 5903 5902 5902 5901 5900 5899 5898 5897 5896 5895 5894
5896 5898 5901 5904 5906 5909 5911 5913 5914 5915 5917 5918 5919 5920 5919 5918 5918 5917 5917 5916 5915 5915 5914 5913 5912 5911 5911 5910 5909 5908 5907 5906 5905 5904 5903 5903 5902 5901 5900 5899 5898 5896 5895 5894
5891 5895 5897 5900 5904 5906 5909 5910 5912 5913 5915 5917 5917 5918 5920 5917 5917 5917 5917 5916 5915 5915 5914 5914 5913 5912 5911 5910 5909 5909 5908 5907 5906 5905 5904 5903 5902 5901 5900 5899 5898 5897 5896 5895
5887 5890 5894 5897 5900 5903 5905 5908 5909 5911 5913 5915 5915 5917 5918 5916 5916 5916 5916 5915 5915 5914 5914 5913 5913 5912 5911 5910 5909 5909 5908 5907 5906 5905 5904 5904 5903 5902 5901 5900 5899 5897 5896 5895
5882 5885 5889 5892 5895 5898 5901 5905 5908 5910 5911 5913 5913 5914 5915 5915 5915 5915 5915 5914 5914 5914 5913 5913 5912 5912 5911 5910 5909 5909 5908 5907 5906 5905 5904 5903 5902 5901 5900 5899 5898 5897 5896 5894
5877 5881 5884 5887 5891 5894 5897 5901 5905 5908 5910 5911 5910 5911 5913 5913 5913 5913 5913 5913 5913 5913 5912 5912 5911 5911 5910 5909 5909 5908 5907 5907 5906 5905 5904 5903 5902 5901 5900 5899 5897 5896 5895 5893
5873 5877 5879 5883 5887 5890 5893 5896 5900 5904 5906 5908 5908 5908 5909 5909 5910 5911 5911 5911 5911 5911 5911 5911 5910 5909 5909 5908 5908 5907 5906 5906 5905 5904 5903 5902 5901 5900 5898 5897 5896 5895 5893 5892
5867 5871 5874 5877 5881 5884 5888 5892 5895 5898 5900 5903 5905 5905 5907 5907 5908 5908 5909 5909 5909 5909 5909 5909 5908 5908 5908 5907 5906 5905 5905 5904 5904 5903 5902 5901 5900 5898 5897 5896 5895 5893 5892 5891
5861 5865 5868 5872 5875 5879 5883 5886 5889 5893 5896 5899 5902 5905 5903 5904 5905 5906 5906 5906 5906 5907 5907 5907 5906 5906 5905 5905 5904 5903 5903 5902 5902 5901 5900 5899 5898 5897 5895 5894 5893 5891 5890 5889
5854 5859 5862 5866 5870 5873 5876 5880 5884 5888 5890 5893 5897 5902 5899 5900 5901 5902 5903 5903 5904 5904 5904 5904 5904 5903 5903 5903 5902 5901 5901 5900 5899 5899 5898 5897 5896 5895 5894 5892 5891 5889 5888 5887
5847 5852 5856 5859 5864 5866 5869 5874 5878 5882 5885 5888 5892 5897 5894 5895 5897 5898 5899 5900 5900 5901 5901 5901 5900 5900 5900 5900 5900 5899 5898 5897 5897 5896 5895 5895 5893 5892 5891 5890 5888 5887 5885 5884
5840 5844 5850 5855 5857 5860 5863 5867 5871 5875 5879 5882 5886 5889 5889 5891 5893 5894 5895 5896 5896 5897 5897 5897 5897 5897 5897 5897 5896 5896 5895 5895 5894 5893 5893 5892 5890 5889 5888 5887 5885 5884 5882 5880
5833 5837 5841 5846 5850 5853 5857 5860 5864 5868 5872 5876 5880 5882 5884 5886 5888 5889 5890 5891 5892 5892 5893 5893 5893 5893 5893 5893 5892 5892 5892 5891 5891 5890 5890 5889 5888 5886 5885 5884 5882 5881 5879 5876
5826 5830 5834 5838 5842 5845 5849 5853 5857 5861 5865 5869 5873 5876 5878 5880 5882 5884 5885 5886 5887 5888 5888 5889 5889 5889 5889 5889 5888 5888 5888 5888 5887 5887 5886 5885 5884 5883 5881 5880 5879 5877 5875 5873
5819 5824 5828 5831 5835 5837 5841 5846 5850 5854 5858 5862 5865 5869 5872 5874 5876 5878 5880 5881 5882 5882 5883 5884 5884 5884 5884 5884 5884 5884 5884 5883 5883 5882 5882 5881 5880 5879 5878 5876 5874 5872 5870 5868
5813 5817 5821 5825 5828 5830 5836 5840 5843 5847 5851 5855 5858 5862 5865 5868 5870 5872 5874 5875 5876 5877 5877 5878 5879 5879 5880 5879 5880 5879 5879 5879 5878 5878 5877 5876 5875 5874 5872 5871 5869 5867 5865 5863
5806 5810 5814 5818 5820 5824 5828 5832 5836 5840 5844 5848 5851 5855 5859 5861 5864 5865 5867 5869 5870 5871 5872 5872 5873 5873 5874 5874 5874 5874 5874 5873 5873 5872 5872 5871 5870 5868 5867 5865 5864 5862 5860 5858
5800 5804 5808 5811 5815 5818 5822 5825 5829 5834 5836 5841 5844 5848 5851 5854 5857 5859 5861 5862 5864 5865 5866 5866 5867 5868 5868 5868 5868 5868 5868 5867 5867 5866 5866 5865 5864 5862 5861 5859 5857 5856 5854 5852
5794 5797 5801 5804 5808 5811 5814 5818 5823 5827 5831 5834 5837 5841 5844 5846 5850 5853 5854 5855 5857 5858 5859 5860 5861 5861 5862 5862 5862 5862 5862 5862 5861 5861 5860 5859 5857 5856 5854 5852 5851 5850 5848 5846
5788 5792 5795 5799 5803 5807 5808 5811 5816 5820 5824 5827 5830 5833 5836 5839 5842 5844 5846 5848 5850 5851 5852 5853 5854 5854 5855 5855 5855 5856 5855 5855 5855 5854 5853 5852 5851 5849 5847 5846 5844 5843 5841 5840
5782 5786 5789 5793 5797 5799 5802 5805 5809 5813 5817 5820 5823 5826 5829 5831 5834 5836 5839 5841 5842 5844 5845 5846 5846 5847 5847 5848 5848 5848 5848 5848 5848 5847 5846 5845 5844 5842 5841 5839 5837 5836 5834 5832
5776 5780 5783 5786 5790 5793 5796 5799 5802 5806 5810 5813 5816 5819 5822 5824 5827 5829 5831 5833 5834 5836 5837 5838 5839 5839 5840 5840 5840 5841 5840 5840 5840 5839 5838 5837 5836 5835 5833 5832 5830 5828 5827 5825
5770 5773 5776 5779 5783 5786 5789 5792 5796 5799 5803 5805 5808 5811 5814 5816 5818 5821 5822 5824 5826 5828 5829 5830 5830 5831 5831 5832 5832 5832 5831 5831 5831 5830 5830 5829 5827 5826 5825 5824 5822 5820 5819 5817
5764 5767 5770 5773 5777 5780 5783 5786 5789 5792 5795 5798 5801 5804 5806 5809 5811 5812 5814 5815 5817 5818 5819 5820 5821 5821 5822 5822 5822 5822 5822 5822 5822 5821 5821 5820 5819 5817 5816 5815 5814 5812 5810 5808